Погода в Ейске

Погода в Ейске : погода сейчас, прогноз погоды и архив. Всё, что Вы хотите узнать о погоде в Ейске!

Хотите узнать прогноз погоды в Ейске? Тогда Вам сюда: Погода в Ейске

Поиск расширенной информации на нашем сайте:

Другие новости

Новости СМИ2

Главная страница сайта

Новости сайта

03.07.2017

Напоминаем, что на нашем специализированном сайте Метеоцентр.Азия вы можете получить высокодетализированные автоматические прогнозы погоды по пунктам России, СНГ и мира в авиационном формате (включающие направление и скорость ветра, видимость, явления погоды, количество и форму облачности, нижнюю и верхнюю границу облачности).


Погода в Ейске - сегодня

Время (UTC), дата Ветер
(°,м/с) 
Видим.   Явления Облачность Т
(°С)
Тd
(°С)
f(%) Тe
(°С)
Pmin
(гПа)
dP
(гПа)
Po
(мм)
O2
(г/м3)
Тmin Tmax R s Состояние
почвы
21 21.04.18 230 (ЮЗ) 7-10{10}  10 км    ясно 
+10.7 +3.4 61 +9  1010.7  -1.4  756  293           
00 22.04.18 230 (ЮЗ) 7-10{11}  10 км    ясно 
+11.2 +6.5 73 +10  1008.2  -2.5  754  291           
03 22.04.18 250 (З) 8-13{16}  10 км    8/5 600 м средняя 
[Sc diur, vesp|Ac lent]
+11.9 +5.6 65 +10  1006.3  -1.8  753  290  +9.9        сухая 
06 22.04.18 250 (З) 9-13{14}  10 км  {ливн. осадки}  10/10 600 м кучево-дожд. 
[Cb calv]
+12.6 +8.1 74 +11  1006.6  0.3  753  289           
09 22.04.18 260 (З) 5{13}  10 км    6/3 600 м верхняя 
[Sc diur, vesp|Ci fib]
+16.9 +9.2 60 +17  1006.5  0.1  753  284           
12 22.04.18 270 (З) 8-10{11}  10 км    1/1 600 м 
[Cu med, cong]
+18.6 +8.6 52 +18  1006.3  0.1  753  282           
15 22.04.18 260 (З) 7{12}  10 км    1/1 600 м 
[Cu hum]
+16.4 +5.3 48 +16  1006.5  0.1  753  285    +19       
18 22.04.18 300 (СЗ) 10 км    ясно 
+13.3 +8.9 75 +13  1009  2.5  755  288           
21 22.04.18 290 (З) 10 км    ясно 
+12.9 +6.7 66 +12  1010.2  1.2  755  290           
00 23.04.18 280 (З) 10 км    4/0 верхняя 
[Ci fib]
+11.7 +7.1 73 +11  1010.5  0.3  756  291           
03 23.04.18 240 (ЮЗ) 10 км    8/8 600 м 
[Sc diur, vesp]
+8.5 +7.7 95 +7  1011  0.4  756  294  +7.6        сухая 
06 23.04.18 290 (З) 10 км  в посл. час ливневой дождь  10/10 600 м кучево-дожд. 
[Cb calv]
+11.5 +5.3 66 +11  1012.1  1.1  757  292           
09 23.04.18 280 (З) 10 км    3/3 600 м 
[Cu hum]
+13.8 +6 59 +13  1012.6  0.5  757  290           
12 23.04.18 280 (З) 10 км    3/3 600 м 
[Cu hum]
+15.1 +6.7 57 +14  1012.9  0.3  758  288           
15 23.04.18 280 (З) 10 км    5/5 600 м 
[Cu hum]
+14 +6.9 62 +13  1013.7  0.8  758  289    +15.2       
18 23.04.18 230 (ЮЗ) 10 км    ясно 
+8.8 +5.6 80 +9  1015.8  760  296           
21 23.04.18 110 (В) 10 км    ясно 
+9.6 +2.1 59 +9  1016.8  0.9  760  296           
00 24.04.18 130 (ЮВ) 10 км    ясно 
+7.8 +0.6 60 +6  1017.5  0.7  761  298           
03 24.04.18 130 (ЮВ) 10 км    3/3 600 м 
[Sc]
+6.5 +0.2 64 +5  1018.3  0.8  761  300  +5.9        сухая 
06 24.04.18 180 (Ю) 10 км    4/4 600 м 
[Sc]
+12.3 +5.9 65 +12  1018.9  0.6  762  293           
09 24.04.18 360 (С) 10 км    4/3 600 м верхняя 
[Cu med, cong|Ci fib]
+15.7 +7.5 58 +16  1018.7  0.1  762  289           
12 24.04.18 220 (ЮЗ) 8-12{12}  10 км    8/0 верхняя 
[Ci]
+18.4 +7.1 48 +18  1017.5  -1.1  761  286           
15 24.04.18 220 (ЮЗ) 9-12  10 км    8/4 600 м верхняя 
[Sc diur, vesp|Ci]
+16 +5.5 50 +15  1016.1  -1.4  760  288    +18.5       
18 24.04.18 220 (ЮЗ) 9-11{13}  10 км    10/0 средняя 
[Ac und]
+14.5 +4.7 52 +13  1015.5  -0.6  759  290           
21 24.04.18 230 (ЮЗ) 9-13{15}  10 км  слаб. ливневой дождь  10/10 600 м кучево-дожд. 
[Cb calv]
+13.1 +5.1 58 +12  1015.7  0.2  760  291           
Время (UTC), дата Ветер
(°,м/с) 
Видим.   Явления Облачность Т
(°С)
Тd
(°С)
f(%) Тe
(°С)
Pmin
(гПа)
dP
(гПа)
Po
(мм)
O2
(г/м3)
Тmin Tmax R s Состояние
почвы

Для получения пояснительной информации подведите курсор к названию столбца.

ПОГОДА в Ейске - архив

Всё, что Вы хотите узнать о погоде в Ейске - удобно и подробно!

Выберите нужную дату (начиная с 1 января 2015* года) и нажмите кнопку "Найти".
Будут отображены архивные сводки погоды по пункту Ейск, начиная с указанной даты.


Отображать данные в формате CSV (для использования в таблицах Excel)


Внимание! Наш архив погоды предназначен исключительно для личного некоммерческого использования в познавательных целях. Если Вам необходимы официальные справки о состоянии погоды (для производственных, юридических, коммерческих и т.п. целей), обращайтесь в органы Росгидромета.

*Примечание: данная дата относится к архиву по метеостанциям СССР (Россия, СНГ, Балтия).
Архив по метеостанциям Зарубежной Европы и Азии (кроме Китая) хранится 10 дней, по другим регионам земного шара (Китай, Африка, Америка, Австралия, Океания) - 1 день.

Ейск - район местоположения метеостанции


Название, широта, долгота, высота метеостанции:
Ейск 46.8°ш. 38.3°д. 3 м над ур. моря [Российская Федерация]

Дополнительная информация

В oтличие oт бoльшинства пoгoдных сайтoв мы публикуем пoдрoбную метеoинфoрмацию в детальнoм прoфессиoнальнoм фoрмате.

Характеристики температуры и влажнoсти вoздуха измеряются на высoте 2 м в тени вдали oт зданий и деревьев.
Скoрoсть ветра измеряется на высoте 10 м (на урoвне рoста челoвека скoрoсть ветра ниже в 1.5-2 раза). Если метеoстанция нахoдится в гoрoде или в лесу, тo скoрoсть ветра занижена на 2-4 м/с пo сравнению с oткрытым местoм. Скoрoсть ветра над акватoриями крупных рек и oзёр, а также на вершинах хoлмoв на 2-5 м/с выше, чем в oбычных услoвиях.
Атмoсфернoе давление в разных тoчках местнoсти мoжет значительнo oтличаться oт давления на метеoстанции, в зависимoсти oт услoвий рельефа (при пoдъёме на 10 м давление пoнижается примернo на 1 мм рт.ст.).